Carbondale, IL

4:51 AM CDT on July 24, 2017 (GMT -0500)
Southern Illinois

Weather History for KMDH - June, 2013

Change the Weather History Date:

Sunday, June 2, 2013

  Actual Average Record
Temperature  
Mean Temperature 65 °F -  
Max Temperature 73 °F 81 °F 101 °F (1934)
Min Temperature 59 °F 58 °F 42 °F (1956)
Growing Degree Days 15 (Base 50)    
Moisture  
Dew Point 59 °F    
Average Humidity 80    
Maximum Humidity 97    
Minimum Humidity 68    
Precipitation  
Precipitation 0.01 in - - ()
Sea Level Pressure  
Sea Level Pressure 29.96 in    
Wind  
Wind Speed 6 mph (NW)    
Max Wind Speed 12 mph    
Max Gust Speed -    
Visibility 10 miles    
Events      
Averages and records for this station are not official NWS values.
T = Trace of Precipitation, MM = Missing Value Source: NWS Daily Summary

Daily Weather History Graph

Daily Weather History Graph

Search for Another Location

Airport or City:

Trip Planner

Search our weather history database for the weather conditions in past years. The results will help you decide how hot, cold, wet, or windy it might be!

Date:

Astronomy

Jun. 02, 2013 Rise Set
Actual Time 5:36 AM CDT 8:14 PM CDT
Civil Twilight 5:05 AM CDT 8:44 PM CDT
Nautical Twilight 4:27 AM CDT 9:23 PM CDT
Astronomical Twilight 3:44 AM CDT 10:06 PM CDT
Moon 1:57 AM CDT (6/2) 2:49 PM CDT (6/2)
Length of Visible Light 15h 39m
Length of Day
14h 37m
Waning Crescent, 30% of the Moon is Illuminated
Jun 2
Waning Crescent
Jun 8
New
Jun 16
First Quarter
Jun 23
Full
Jun 29
Last Quarter

Hourly Weather History & Observations

Time (CDT) Temp. Dew Point Humidity Pressure Visibility Wind Dir Wind Speed Gust Speed Precip Events Conditions
12:52 AM 64.9 °F 63.0 °F 93% 29.90 in 10.0 mi WSW 4.6 mph - N/A   Mostly Cloudy
1:52 AM 63.0 °F 62.1 °F 97% 29.91 in 10.0 mi SW 5.8 mph - 0.01 in   Clear
2:52 AM 63.0 °F 61.0 °F 93% 29.90 in 10.0 mi West 3.5 mph - N/A   Clear
3:52 AM 61.0 °F 60.1 °F 97% 29.91 in 10.0 mi WSW 4.6 mph - N/A   Clear
4:52 AM 59.0 °F 57.9 °F 96% 29.92 in 10.0 mi WSW 4.6 mph - N/A   Clear
5:52 AM 60.1 °F 57.9 °F 93% 29.94 in 10.0 mi West 5.8 mph - N/A   Clear
6:52 AM 62.1 °F 57.9 °F 86% 29.93 in 10.0 mi WNW 5.8 mph - N/A   Clear
7:52 AM 64.9 °F 57.9 °F 78% 29.94 in 10.0 mi WNW 6.9 mph - N/A   Clear
8:52 AM 66.0 °F 57.9 °F 75% 29.96 in 10.0 mi NNW 8.1 mph - N/A   Mostly Cloudy
9:52 AM 66.9 °F 57.9 °F 73% 29.96 in 10.0 mi NW 11.5 mph - N/A   Mostly Cloudy
10:34 AM 68.0 °F 59.0 °F 73% 29.97 in 10.0 mi NW 10.4 mph - N/A   Mostly Cloudy
10:52 AM 69.1 °F 59.0 °F 70% 29.97 in 10.0 mi NW 8.1 mph - N/A   Overcast
11:52 AM 69.1 °F 59.0 °F 70% 29.98 in 10.0 mi Variable 6.9 mph - N/A   Overcast
12:52 PM 71.1 °F 60.1 °F 68% 29.97 in 10.0 mi NNW 8.1 mph - N/A   Overcast
1:52 PM 70.0 °F 59.0 °F 68% 29.98 in 10.0 mi NNW 8.1 mph - N/A   Overcast
2:52 PM 70.0 °F 60.1 °F 71% 29.98 in 10.0 mi NW 4.6 mph - N/A   Overcast
3:52 PM 70.0 °F 60.1 °F 71% 29.97 in 10.0 mi WNW 4.6 mph - N/A   Overcast
4:52 PM 69.1 °F 59.0 °F 70% 29.97 in 10.0 mi North 10.4 mph - N/A   Mostly Cloudy
5:52 PM 69.1 °F 60.1 °F 73% 29.96 in 10.0 mi NNW 9.2 mph - N/A   Mostly Cloudy
6:52 PM 66.9 °F 59.0 °F 76% 29.96 in 10.0 mi NNW 6.9 mph - N/A   Partly Cloudy
7:52 PM 66.0 °F 59.0 °F 78% 29.97 in 10.0 mi NNW 4.6 mph - N/A   Overcast
8:52 PM 64.9 °F 57.9 °F 78% 29.99 in 10.0 mi North 5.8 mph - N/A   Overcast
9:18 PM 64.4 °F 57.2 °F 77% 30.00 in 10.0 mi North 4.6 mph - N/A   Overcast
9:37 PM 64.4 °F 57.2 °F 77% 30.01 in 10.0 mi North 6.9 mph - N/A   Overcast
9:52 PM 64.0 °F 57.0 °F 78% 30.01 in 10.0 mi North 8.1 mph - N/A   Overcast
10:52 PM 62.1 °F 57.0 °F 84% 30.01 in 10.0 mi North 4.6 mph - N/A   Overcast
11:52 PM 62.1 °F 57.0 °F 84% 30.01 in 10.0 mi North 3.5 mph - N/A   Overcast